Flag for Germany Weather past 2 weeks in Greifswald, Mecklenburg-Western Pomerania, Germany

Now
61 °F

Overcast.


Feels Like: 61 °F
Forecast: 47 / 60 °F
Wind: 5 mph from Northwest

Location: Greifswald

Current Time: May 25, 2015 at 5:55:01 PM

Latest Report: May 25, 2015 at 5:00 PM


Visibility: 25 mi

Pressure: 29.88 "Hg

Humidity: 62%

Dew point: 48 °F

Location of GreifswaldLocation

Historic Weather in Greifswald — Graph

°F

Greifswald temperature yesterday

Maximum temperature yesterday: 63 °F (at 6:00 PM)
Minimum temperature yesterday: 42 °F (at 4:00 AM)
Average temperature yesterday: 52 °F

Past Weeks' High & Low Weather Summary

 TemperatureHumidityPressure
High76 °F (May 12, 2:00 PM)98% (May 11, 6:00 AM)30.38 "Hg (May 11, 6:00 AM)
Low38 °F (May 11, 6:00 AM)43% (May 11, 6:00 PM)29.57 "Hg (May 19, 5:00 AM)
Average52 °F73%30.02 "Hg
* Reported May 10 4:00 PM — May 25 4:00 PM, Greifswald, Weather by CustomWeather, © 2015

Note: Actual official high and low records may vary slightly from our data, if they occured in-between our weather recording intervals... More about our weather records

Advertising

Greifswald weather history for previous 24 hours

 ConditionsComfort  
Time TempWeatherWind HumidityBarometerVisibility
4:00 PM
Mon, May 25
61 °FOvercast.5 mph67%29.88 "Hg14 mi
3:00 PM63 °FOvercast.5 mph55%29.88 "Hg19 mi
2:00 PM62 °FOvercast.6 mph52%29.88 "Hg22 mi
1:00 PM62 °FOvercast.6 mph55%29.88 "Hg22 mi
12:00 PM65 °FOvercast.6 mph52%29.88 "Hg22 mi
10:00 AM62 °FOvercast.3 mph57%29.91 "Hg22 mi
9:00 AM60 °FOvercast.3 mph60%29.92 "Hg25 mi
8:00 AM55 °FPartly sunny.2 mph69%29.92 "Hg19 mi
7:00 AM52 °FPassing clouds.3 mph76%29.93 "Hg19 mi
6:00 AM51 °FScattered clouds.2 mph82%29.93 "Hg16 mi
4:00 AM51 °FPassing clouds.3 mph85%29.95 "Hg12 mi
3:00 AM51 °FPassing clouds.5 mph85%29.97 "Hg14 mi
2:00 AM51 °FClear.3 mph88%29.98 "Hg14 mi
1:00 AM51 °FClear.3 mph87%30.00 "Hg14 mi
12:00 AM47 °FClear.2 mph94%30.02 "Hg10 mi
10:00 PM
Sun, May 24
51 °FClear.2 mph85%30.03 "Hg14 mi
9:00 PM56 °FPassing clouds.3 mph75%30.04 "Hg22 mi
8:00 PM58 °FPassing clouds.3 mph69%30.05 "Hg22 mi
7:00 PM60 °FPassing clouds.5 mph63%30.06 "Hg25 mi
6:00 PM63 °FScattered clouds.1 mph48%30.07 "Hg25 mi
Weather by CustomWeather, © 2015

See weather overviewHow to use our weather pages